This is the latest recevied weather packets stored in our database for station/object KI8L. If no packets are shown the sender has not sent any weather packets the latest 10 day(s).
| Time | Temp. | Humidity | Pressure | Rain* | Wind** | Luminosity | Snow |
|---|---|---|---|---|---|---|---|
| 1777381017 | 13.89° C | 95% | 1014 hPa | 0 mm | - | 61 W/m² | - |
| 1777380714 | 13.89° C | 95% | 1014 hPa | 0 mm | - | 58 W/m² | - |
| 1777380410 | 13.89° C | 95% | 1014.2 hPa | 0 mm | - | 59 W/m² | - |
| 1777380107 | 13.33° C | 96% | 1014 hPa | 0 mm | - | 86 W/m² | - |
| 1777379803 | 13.33° C | 96% | 1013.8 hPa | 0 mm | - | 61 W/m² | - |
| 1777379499 | 13.33° C | 95% | 1013.6 hPa | 0 mm | - | 69 W/m² | - |
| 1777379199 | 13.33° C | 95% | 1014 hPa | 0 mm | - | 94 W/m² | - |
| 1777378895 | 13.33° C | 95% | 1014 hPa | 0 mm | - | 77 W/m² | - |
| 1777378592 | 13.33° C | 96% | 1013.8 hPa | 0 mm | - | 61 W/m² | - |
| 1777378287 | 13.33° C | 96% | 1014 hPa | 0 mm | - | 58 W/m² | - |
| 1777377986 | 13.33° C | 96% | 1013.8 hPa | 0 mm | - | 36 W/m² | - |
| 1777377686 | 13.33° C | 95% | 1013.7 hPa | 0 mm | - | 28 W/m² | - |
| 1777377381 | 13.33° C | 96% | 1014 hPa | 0 mm | - | 24 W/m² | - |
| 1777377078 | 13.33° C | 95% | 1013.7 hPa | 0 mm | - | 31 W/m² | - |
| 1777376774 | 13.33° C | 95% | 1013.6 hPa | 0 mm | - | 22 W/m² | - |
| 1777376472 | 13.33° C | 96% | 1013.6 hPa | 0 mm | - | 21 W/m² | - |
| 1777376168 | 13.33° C | 96% | 1013.5 hPa | 0 mm | - | 23 W/m² | - |
| 1777375862 | 13.33° C | 95% | 1013.4 hPa | 0 mm | - | 15 W/m² | - |
| 1777375557 | 13.33° C | 95% | 1013.2 hPa | 0 mm | - | 15 W/m² | - |
| 1777375253 | 13.33° C | 95% | 1013.3 hPa | 0 mm | - | 10 W/m² | - |
| 1777374949 | 13.33° C | 95% | 1013.4 hPa | 0 mm | - | 10 W/m² | - |
| 1777374645 | 13.33° C | 95% | 1013.4 hPa | 0 mm | - | 7 W/m² | - |
| 1777374341 | 13.33° C | 95% | 1013.5 hPa | 0 mm | - | 5 W/m² | - |
| 1777374038 | 13.33° C | 96% | 1013.3 hPa | 0 mm | - | 4 W/m² | - |
| 1777373734 | 13.89° C | 96% | 1013.3 hPa | 0 mm | - | 3 W/m² | - |
* Rain latest hour (hover to see other rain measurements)
** Current wind speed in m/s (hover to see current wind gust speed)